Regional Weather Roundup
Issued by NWS Upton, NY

Current Version | Previous Version | Text Only | Print | Product List | Glossary On
Versions: 1 2 3 4 5 6 7 8 9 10 11 12 13 14 15 16 17 18 19 20 21 22 23 24 25 26 27 28
000
ASUS41 KOKX 211409
RWROKX

REGIONAL WEATHER ROUNDUP
NATIONAL WEATHER SERVICE NEW YORK NY
1000 AM EDT SAT OCT 21 2017

NOTE: "FAIR" INDICATES FEW OR NO CLOUDS BELOW 12,000 FEET WITH NO
SIGNIFICANT WEATHER AND/OR OBSTRUCTIONS TO VISIBILITY.

NYZ071-072-176-178-NJZ106-104-211500-
NEW YORK CITY METRO AREA

CITY           SKY/WX    TMP DP  RH WIND       PRES   REMARKS
Central Park   SUNNY     64  37  36 CALM      30.36S
Bronx Bot Gard   N/A     68  46  45 CALM      30.36S
LaGuardia APRT MOSUNNY   65  46  50 CALM      30.33S
Kennedy INTL   MOSUNNY   68  42  38 CALM      30.34S
Breezy Point     N/A     63 N/A N/A W5          N/A
Newark/Liberty MOSUNNY   64  40  41 CALM      30.34R
Teterboro      SUNNY     61  43  51 CALM      30.34R
$$

NYZ177-179-078>081-211500-
LONG ISLAND NEW YORK

CITY           SKY/WX    TMP DP  RH WIND       PRES   REMARKS
Jones Beach      N/A     64 N/A N/A NW3         N/A
Matinecock PT    N/A     64 N/A N/A CALM        N/A
Farmingdale    SUNNY     67  42  40 N3        30.33S
MacArthur/ISP  MOSUNNY   66  49  54 NW7       30.33R
Shirley        SUNNY     68  51  54 N3        30.33R
Mt Sinai Harb    N/A    N/A N/A N/A NW1         N/A
Westhampton    SUNNY     66  44  45 N6        30.34R
East Hampton   FAIR      64  47  55 CALM      30.33R
Montauk          N/A     65  46  50 W3        30.34R
$$

NYZ052-065-067-211500-
HUDSON VALLEY

CITY           SKY/WX    TMP DP  RH WIND       PRES   REMARKS
White Plains   SUNNY     67  38  34 NW5       30.33S
Larchmont Harb   N/A     59 N/A N/A MISG        N/A
Croton On Huds   N/A     57 N/A N/A CALM        N/A
Newburgh       SUNNY     61  43  51 CALM      30.35S
Montgomery     SUNNY     58  43  57 S6        30.33S
Poughkeepsie   SUNNY     53  43  68 CALM      30.34S
Albany         MOSUNNY   55  40  56 CALM      30.33S
$$

NJZ001-105-106-008-010-013-015-019>022-104-211500-
NEW JERSEY

CITY           SKY/WX    TMP DP  RH WIND       PRES   REMARKS
Newark/Liberty MOSUNNY   64  40  41 CALM      30.34R
Teterboro      SUNNY     61  43  51 CALM      30.34R
Caldwell       SUNNY     57  44  62 CALM      30.35R
Somerville     SUNNY     57  45  64 CALM      30.35R
Linden         FAIR      63  40  42 CALM      30.35R
Perth Amboy      N/A     57 N/A N/A W5          N/A
Sussex         SUNNY     53  45  74 SW3       30.35S
Andover          N/A     55  46  71 CALM      30.36S
Trenton        SUNNY     62  44  51 CALM      30.35R
Millville      SUNNY     65  45  48 N3        30.36R
Atlantic City  SUNNY     65  45  48 CALM      30.35R
Wrightstown    SUNNY     64  43  47 CALM      30.33R
Toms River       N/A     62  43  49 CALM      30.36R
Belmar         SUNNY     62  46  55 W3        30.36R
$$

PAZ047>061-062-071-211500-
EASTERN PENNSYLVANIA

CITY           SKY/WX    TMP DP  RH WIND       PRES   REMARKS
Philadelphia   MOSUNNY   61  42  49 SW3       30.37R
Allentown      SUNNY     55  42  61 CALM      30.37R
Scranton       SUNNY     52  39  61 CALM      30.38R
$$

CTZ002-004>006-009-010-012-RIZ004-006-007-MAZ004-011-015-211500-
SOUTHERN NEW ENGLAND
 IN CT

CITY           SKY/WX    TMP DP  RH WIND       PRES   REMARKS
Bradley INTL   MOSUNNY   56  42  59 CALM      30.32F
Hartford       SUNNY     56  44  64 S3        30.33S
Danbury        SUNNY     57  43  59 CALM      30.35S
Wtrbury/Oxford SUNNY     59  39  47 CALM      30.34S
Norwalk Harbor NOT AVBL
Bridgeport     SUNNY     65  40  39 NW5       30.33R
Meriden        SUNNY     61  42  49 CALM      30.33S
New Haven      SUNNY     63  37  38 NW6       30.33R
Chester        FAIR      70  36  28 N5        30.33R
Groton         SUNNY     61  46  57 CALM      30.32R
Wilimantic     SUNNY     54  43  66 CALM      30.33S

 IN RI

CITY           SKY/WX    TMP DP  RH WIND       PRES   REMARKS
Providence     SUNNY     63  43  48 W5        30.31R
Block Island   SUNNY     66  42  41 SW5       30.33R
Westerly       SUNNY     62  42  47 CALM      30.33R
 IN MA

CITY           SKY/WX    TMP DP  RH WIND       PRES   REMARKS
Boston         MOSUNNY   63  40  42 SW5       30.28S
Worcester      SUNNY     60  31  33 W13       30.31R
Westfield      SUNNY     55  41  59 VRB3      30.32S
Provincetown   SUNNY     64  48  56 SW6       30.30R
Nantucket        N/A     64  50  60 S6        30.30R
$$

ANZ330-335-338-340-345-350-353-355-211500-
COASTAL MARINE OBSERVATIONS


STATION/POSITION TIME  SKY/WX   TEMP    WIND        PRES    VSBY  WAVE
                                AIR SEA DIR/SP/G                  HT/PER
                 (UTC)          (F)     (DEG/KT/KT) (MB)    (MI)  (FT/S)
NY HARB ENTRANCE 1250            64 64  320/  4/  4 1026.2          2/ 9
20 S FIRE ISLAND 1250            64 64   20/  6/  8 1026.7          2/ 8
GREAT SOUTH BAY  1315            66 61   10/  4/  4   N/A
15 E BARNEGAT LI NOT AVBL
HUDSON CANYON    1250            65 65   30/ 10/ 12 1025.5          2/ 8
KINGS POINT      1342            60 65   30/  3/  3 1028.0
EXECUTION ROCKS  1330            63     350/  2/  4   N/A
WESTERN LI SOUND 1249            61      CALM  /  2   N/A           0
CENTRAL LI SOUND NOT AVBL
EASTERN LI SOUND NOT AVBL
ROBBINS REEF     1342            61     290/  7/  8 1028.0
$$


>>>>>>>>>>>>>>>>>>>>>>>>>>>> KEY <<<<<<<<<<<<<<<<<<<<<<<<<<<
>                                                          <
>     SKY/WX - Sky Condition/Present Weather               <
>     TMP    - Temperature in Fahrenheit                   <
>     DP     - Dew Point in Fahrenheit                     <
>     RH     - Relative Humidity in Percent                <
>     WIND   - Direction (from) and Speed in MPH           <
>     PRES   - Mean Sea Level Pressure (inches of Hg)      <
>     WCI    - Wind Chill Index                            <
>     VSB    - VISIBILITY IN MILES                         <
>     HX     - HEAT INDEX                                  <
>     TC     - TEMPERATURE IN CELSIUS                      <
>     VRB    - VARIABLE WIND DIRECTION                     <
>                                                          <
>>>>>>>>>>>>>>>>>>>>>>>>>>>> KEY <<<<<<<<<<<<<<<<<<<<<<<<<<<




USA.gov is the U.S. government's official web portal to all federal, state and local government web resources and services.